Weather Roundup
Issued by NWS

Home | Current Version | Previous Version | Text Only | Print | Product List | Glossary On
Versions: 1 2 3 4 5 6 7 8 9 10 11 12 13 14 15 16 17 18 19 20 21 22 23 24 25 26 27 28 29 30 31 32 33 34 35 36 37 38 39 40 41 42 43 44 45 46 47 48 49 50
398
NZUS93 KARX 142059
HRRWXR

CURRENT HOURLY OBSERVATIONS ACROSS
MUCH OF THE UPPER MISSISSIPPI VALLEY
NATIONAL WEATHER SERVICE LA CROSSE WI
300 PM CST SUN FEB 14 2016


...SOUTHEAST MINNESOTA...


CITY           SKY/WX    TMP DP  RH WIND       PRES   REMARKS
ROCHESTER      CLOUDY    16  10  77 SE20      29.90F BLWGSNOWWCI  -1
ROCHESTER/MAYO CLOUDY    17  11  75 SE16      29.92F WCI   2
WINONA         CLOUDY    23  12  63 S6        29.99F WCI  16
AUSTIN           N/A    N/A N/A N/A SE14      29.89F
ALBERT LEA     LGT SNOW  18  12  79 SE13      29.87F WCI   4
DODGE CENTER   LGT SNOW  18  12  79 SE23      29.88F WCI   0
PRESTON        FLURRIES  16  10  76 SE13      29.92F WCI   2
OWATONNA       LGT SNOW  18  10  73 SE18G25   29.88F WCI   2
FARIBAULT      CLOUDY    18  12  79 SE15      29.90F WCI   3
$$

...ELSEWHERE IN MINNESOTA...


CITY           SKY/WX    TMP DP  RH WIND       PRES   REMARKS
MINNEAPOLIS    LGT SNOW  18  12  77 SE12      29.92F WCI   5
INTNL FALLS    SNOW      12   7  80 SE9       29.82F VSB 1/2 WCI   0
DULUTH         FLURRIES  13   5  70 SE12      29.89S WCI  -1
RED WING       NOT AVBL
REDWOOD FALLS  LGT SNOW  20  15  81 S16       29.85F WCI   6
MANKATO        CLOUDY    19  12  73 S13       29.89R WCI   7
WORTHINGTON    CLOUDY    18  12  79 S8        29.81F WCI   7
FAIRMONT       CLOUDY    19  12  73 SE15      29.85R WCI   5
$$

...SOUTHWEST WISCONSIN...


CITY           SKY/WX    TMP DP  RH WIND       PRES   REMARKS
LA CROSSE      CLOUDY    19   9  65 SE17      30.00F WCI   4
PRAIRIE DU CHI MIX PCPN  19  11  70 SE9       30.01F WCI   8
BOSCOBEL       LGT SNOW  18  12  77 E9        30.04F VSB 1   WCI   7
LONE ROCK      LGT SNOW  18  10  73 SE14      30.05F WCI   4
PLATTEVILLE    CLOUDY    18  13  79 SE15G26   30.00F WCI   4
FORT MC COY    FLURRIES  19  11  70 SE13G18   30.02F WCI   6
VIROQUA        CLOUDY    18  11  75 SE14      29.97F WCI   4
WIS DELLS      LGT SNOW  16  10  78 SE13      30.04F WCI   2
$$

...ELSEWHERE IN WISCONSIN...


CITY           SKY/WX    TMP DP  RH WIND       PRES   REMARKS
MILWAUKEE      LGT SNOW  19  16  88 SE10      30.13F VSB 3/4 WCI   7
MADISON        LGT SNOW  16  11  80 SE12      30.06F WCI   3
GREEN BAY      CLOUDY    20  13  74 S17       30.14F WCI   5
EAU CLAIRE     NOT AVBL
BLACK RVR FLS  LGT SNOW  19  11  71 SE9       30.01F WCI   7
MEDFORD        CLOUDY    17   4  59 SE14G20   29.98F WCI   2
WAUSAU         CLOUDY    19   3  49 SE13      30.02F WCI   6
WIS RAPIDS     LGT SNOW  16   7  67 SE15G23   30.05F WCI   1
MARSHFIELD     LGT SNOW  15   8  73 SE12      30.00F WCI   2
RICE LAKE      FLURRIES  17   8  69 SE13      29.98F WCI   3
$$

...NORTHEAST IOWA...


CITY           SKY/WX    TMP DP  RH WIND       PRES   REMARKS
WATERLOO       LGT SNOW  19  13  77 SE14      29.92F WCI   6
DUBUQUE        LGT SNOW  17  12  80 SE16G29   29.97F WCI   2
DECORAH        CLOUDY    18  12  79 SE14G21   29.94F WCI   4
MASON CITY     LGT SNOW  17  13  84 SE15      29.89F FOG     WCI   2
CHARLES CITY   LGT SNOW  18  16  93 SE17G25   29.91F WCI   2
OELWEIN        LGT SNOW  18  14  86 SE18G26   29.94F WCI   2
$$

...ELSEWHERE IN IOWA...


CITY           SKY/WX    TMP DP  RH WIND       PRES   REMARKS
DES MOINES     CLOUDY    24  17  74 SE10      29.86F WCI  14
IOWA CITY      CLOUDY    19  14  81 SE12      29.97F WCI   7
FORT DODGE     CLOUDY    21  16  79 SE6       29.86S WCI  14
MARSHALLTOWN   CLOUDY    20  15  81 SE16      29.89F WCI   6
CEDAR RAPIDS   LGT SNOW  19  14  81 SE10G20   29.93F WCI   7
$$

...NORTHERN ILLINOIS...


CITY           SKY/WX    TMP DP  RH WIND       PRES   REMARKS
CHICAGO-OHARE  LGT SNOW  18  13  80 SE14      30.13F WCI   4
CHICAGO-MIDWAY LGT SNOW  18  11  74 SE14      30.14F WCI   4
MOLINE         LGT SNOW  20  15  81 SE14      30.00F VSB 1   WCI   7
ROCKFORD       LGT SNOW  17  12  80 SE13      30.08F FOG     WCI   4
PEORIA         LGT SNOW  20  14  77 SE12G20   30.02F WCI   8
$$

NOTE: "FAIR" INDICATES FEW OR NO CLOUDS BELOW 12,000 FEET WITH NO
SIGNIFICANT WEATHER AND/OR OBSTRUCTIONS TO VISIBILITY. WIND
SPEEDS ARE IN MILES-PER-HOUR.




USA.gov is the U.S. government's official web portal to all federal, state and local government web resources and services.